TimeCST,TemperatureF,Dew PointF,Humidity,Sea Level PressureIn,VisibilityMPH,Wind Direction,Wind SpeedMPH,Gust SpeedMPH,PrecipitationIn,Events,Conditions,WindDirDegrees,DateUTC
12:32 AM,33.8,28.4,81,29.79,2.0,North,6.9,-,0.01,Snow,Light Snow,350,2013-02-26 06:32:00
12:43 AM,33.8,28.4,81,29.79,3.0,North,8.1,-,0.01,Snow,Light Snow,360,2013-02-26 06:43:00
12:52 AM,33.1,28.9,85,29.81,4.0,North,10.4,17.3,0.01,Snow,Light Snow,350,2013-02-26 06:52:00
1:52 AM,33.1,28.0,82,29.81,2.5,North,6.9,-,0.00,Snow,Light Snow,350,2013-02-26 07:52:00
2:36 AM,32.0,28.4,87,29.77,3.0,North,9.2,-,0.00,,Overcast,350,2013-02-26 08:36:00
2:52 AM,32.0,28.0,85,29.80,4.0,North,9.2,-,0.00,,Overcast,350,2013-02-26 08:52:00
3:52 AM,30.9,27.0,85,29.79,4.0,NNW,8.1,17.3,N/A,,Overcast,340,2013-02-26 09:52:00
4:52 AM,30.9,26.1,82,29.78,4.0,North,12.7,21.9,N/A,,Haze,350,2013-02-26 10:52:00
5:52 AM,30.0,26.1,85,29.78,5.0,NNW,10.4,17.3,N/A,,Overcast,340,2013-02-26 11:52:00
6:52 AM,30.0,26.1,85,29.77,5.0,North,9.2,18.4,N/A,,Overcast,350,2013-02-26 12:52:00
7:52 AM,30.0,25.0,82,29.78,4.0,North,10.4,17.3,N/A,,Haze,360,2013-02-26 13:52:00
8:52 AM,32.0,25.0,75,29.79,5.0,North,10.4,20.7,N/A,,Haze,350,2013-02-26 14:52:00
9:26 AM,30.2,24.8,80,29.78,4.0,North,11.5,19.6,N/A,,Haze,360,2013-02-26 15:26:00
9:36 AM,32.0,24.8,75,29.78,4.0,North,12.7,20.7,N/A,,Haze,360,2013-02-26 15:36:00
9:52 AM,32.0,25.0,75,29.80,4.0,North,8.1,18.4,N/A,,Haze,360,2013-02-26 15:52:00
10:42 AM,33.8,26.6,75,29.78,5.0,North,10.4,21.9,N/A,,Haze,350,2013-02-26 16:42:00
10:52 AM,33.1,26.1,75,29.81,5.0,North,8.1,19.6,N/A,,Haze,360,2013-02-26 16:52:00
11:52 AM,36.0,27.0,70,29.81,6.0,North,9.2,18.4,N/A,,Haze,350,2013-02-26 17:52:00
12:52 PM,36.0,27.0,70,29.80,5.0,North,10.4,18.4,N/A,,Haze,360,2013-02-26 18:52:00
1:52 PM,35.1,27.0,72,29.78,5.0,North,9.2,-,N/A,,Haze,350,2013-02-26 19:52:00
2:01 PM,35.6,26.6,70,29.75,5.0,North,5.8,-,N/A,,Haze,350,2013-02-26 20:01:00
2:52 PM,36.0,28.0,73,29.78,6.0,North,4.6,-,N/A,,Haze,350,2013-02-26 20:52:00
3:52 PM,36.0,28.0,73,29.79,6.0,North,10.4,17.3,N/A,,Haze,350,2013-02-26 21:52:00
4:37 PM,35.6,28.4,75,29.79,2.0,NNW,10.4,-,0.00,Snow,Light Snow,340,2013-02-26 22:37:00
4:52 PM,34.0,28.9,82,29.82,2.5,Variable,6.9,-,0.00,Snow,Light Snow,0,2013-02-26 22:52:00
4:59 PM,33.8,28.4,81,29.79,3.0,North,6.9,18.4,0.00,Snow,Light Snow,350,2013-02-26 22:59:00
5:32 PM,33.8,28.4,81,29.81,4.0,Variable,5.8,-,0.00,,Haze,0,2013-02-26 23:32:00
5:52 PM,33.1,28.0,82,29.84,3.0,North,6.9,-,0.00,Snow,Light Snow,350,2013-02-26 23:52:00
6:01 PM,33.8,26.6,75,29.82,3.0,NNW,9.2,-,0.00,Snow,Light Snow,330,2013-02-27 00:01:00
6:22 PM,32.0,26.6,80,29.84,3.0,NNW,5.8,-,0.00,Snow,Light Snow,330,2013-02-27 00:22:00
6:35 PM,32.0,28.4,87,29.85,2.0,Variable,4.6,-,0.00,Snow,Light Snow,0,2013-02-27 00:35:00
6:52 PM,32.0,28.0,85,29.89,2.0,NNW,4.6,-,0.00,Snow,Light Snow,330,2013-02-27 00:52:00
7:01 PM,32.0,28.4,87,29.86,1.8,Variable,3.5,-,0.00,Snow,Light Snow,0,2013-02-27 01:01:00
7:52 PM,30.9,28.9,92,29.91,1.2,NNW,5.8,-,0.02,Snow,Light Snow,340,2013-02-27 01:52:00
8:52 PM,30.9,28.0,89,29.93,1.2,Variable,4.6,-,0.02,Snow,Light Snow,0,2013-02-27 02:52:00
9:12 PM,30.2,28.4,93,29.91,1.2,North,6.9,-,0.00,Snow,Light Snow,360,2013-02-27 03:12:00
9:32 PM,30.2,28.4,93,29.91,1.2,North,4.6,-,0.01,Snow,Light Snow,10,2013-02-27 03:32:00
9:52 PM,30.9,28.0,89,29.94,1.8,North,5.8,-,0.01,Snow,Light Snow,350,2013-02-27 03:52:00
10:05 PM,30.2,28.4,93,29.92,1.2,NNW,5.8,-,0.00,Snow,Light Snow,340,2013-02-27 04:05:00
10:45 PM,30.2,28.4,93,29.93,2.0,NNW,4.6,-,0.01,Snow,Light Snow,340,2013-02-27 04:45:00
10:50 PM,30.2,28.4,93,29.93,1.8,NNW,3.5,-,0.01,Snow,Light Snow,340,2013-02-27 04:50:00
10:52 PM,30.0,28.0,92,29.96,1.8,North,3.5,-,0.01,Snow,Light Snow,350,2013-02-27 04:52:00
11:08 PM,30.2,28.4,93,29.93,1.5,NNW,3.5,-,0.00,Snow,Light Snow,340,2013-02-27 05:08:00
11:25 PM,30.2,28.4,93,29.93,2.0,North,4.6,-,0.00,Snow,Light Snow,350,2013-02-27 05:25:00
11:33 PM,30.2,28.4,93,29.93,1.2,NNW,4.6,-,0.01,Snow,Light Snow,340,2013-02-27 05:33:00
11:52 PM,30.0,28.0,92,29.96,0.8,North,4.6,-,0.02,Snow,Light Snow,350,2013-02-27 05:52:00